This demonstration page uses our WeatherBlox Daily Observations layout. Learn more.

Left ArrowRight Arrow

39.51506, -84.39828

Hourly Observations for August 29, 2021

Temp ( °F °C ) Dew Point ( °F °C ) Humidity (%) Winds ( mph kmh ) Pressure ( in mb ) Visibility ( mi km ) Precip ( " mm )
12:15 am 00:15 Clear 73 23 N/A N/A N N/A 30.15 1021 10 16 N/A
12:35 am 00:35 Clear 73 23 N/A N/A N N/A 30.15 1021 10 16 N/A
12:55 am 00:55 Clear 73 23 N/A N/A NNW 3 6 30.14 1021 10 16 N/A
1:15 am 01:15 Clear 73 23 N/A N/A N N/A 30.14 1021 7 11 N/A
1:35 am 01:35 Clear 73 23 N/A N/A N N/A 30.13 1020 7 11 N/A
1:55 am 01:55 Hazy 72 22 N/A N/A N N/A 30.13 1020 7 11 N/A
2:15 am 02:15 Hazy 72 22 N/A N/A N N/A 30.12 1020 5 8 N/A
2:35 am 02:35 Hazy 72 22 N/A N/A N N/A 30.12 1020 7 11 N/A
2:55 am 02:55 Hazy 72 22 N/A N/A N N/A 30.12 1020 7 11 N/A
3:15 am 03:15 Clear with Nearby Thunderstorms 72 22 N/A N/A N N/A 30.11 1020 5 8 N/A
3:35 am 03:35 Hazy 72 22 N/A N/A N N/A 30.11 1020 5 8 N/A
3:55 am 03:55 Hazy 72 22 N/A N/A N N/A 30.11 1020 5 8 N/A
4:15 am 04:15 Hazy 72 22 N/A N/A N N/A 30.11 1020 5 8 N/A
4:35 am 04:35 Hazy 72 22 N/A N/A N N/A 30.12 1020 7 11 N/A
4:55 am 04:55 Partly Cloudy 72 22 N/A N/A N N/A 30.12 1020 7 11 N/A
5:15 am 05:15 Hazy 72 22 N/A N/A N N/A 30.12 1020 5 8 N/A
5:35 am 05:35 Hazy 72 22 N/A N/A W 3 6 30.12 1020 5 8 N/A
5:55 am 05:55 Hazy 72 22 N/A N/A N N/A 30.13 1020 5 8 N/A
6:15 am 06:15 Hazy 70 21 N/A N/A N N/A 30.13 1020 5 8 N/A
6:35 am 06:35 Hazy 72 22 N/A N/A N N/A 30.14 1021 4 6 N/A
6:55 am 06:55 Mostly Cloudy with Haze 72 22 N/A N/A N N/A 30.14 1021 5 8 N/A
7:15 am 07:15 Hazy 72 22 N/A N/A N N/A 30.14 1021 5 8 N/A
7:35 am 07:35 Hazy 72 22 N/A N/A N N/A 30.15 1021 4 6 N/A
7:55 am 07:55 Hazy 72 22 N/A N/A N N/A 30.15 1021 5 8 N/A
8:15 am 08:15 Hazy 73 23 N/A N/A N N/A 30.14 1021 5 8 N/A
8:35 am 08:35 Hazy 75 24 N/A N/A N N/A 30.14 1020 7 11 N/A
8:55 am 08:55 Hazy 75 24 N/A N/A WSW 3 6 30.15 1021 7 11 N/A
9:15 am 09:15 Sunny 75 24 N/A N/A WSW 6 9 30.15 1021 7 11 N/A
9:35 am 09:35 Sunny 75 24 N/A N/A WSW 6 9 30.15 1021 7 11 N/A
9:55 am 09:55 Partly Cloudy 77 25.1 76 24.4 96 96 SSW 7 11 30.14 1021 10 16 N/A
10:15 am 10:15 Mostly Cloudy 78 25.5 75 23.8 90 90 SW 6 9 30.14 1021 10 16 N/A
10:35 am 10:35 Mostly Cloudy 81 27 75 24 84 84 SSW 7 11 30.14 1021 10 16 N/A
10:55 am 10:55 Partly Cloudy 82 28 74 23.1 75 75 SW 8 13 30.14 1021 10 16 N/A
11:15 am 11:15 Partly Cloudy 83 28.5 73 22.7 71 71 SW 8 13 30.14 1020 10 16 N/A
11:35 am 11:35 Mostly Cloudy 83 28.1 73 23 74 74 SW 7 11 30.14 1021 10 16 N/A
11:55 am 11:55 Mostly Cloudy 84 28.9 74 23.4 72 72 SW 7 11 30.12 1020 10 16 N/A
12:15 pm 12:15 Partly Cloudy 85 29.6 75 24.1 72 72 SSW 7 11 30.11 1020 10 16 N/A
12:35 pm 12:35 Partly Cloudy 86 30 74 23.6 69 69 W 9 15 30.10 1019 10 16 N/A
12:55 pm 12:55 Partly Cloudy 87 30.3 75 23.8 68 68 SW 9 15 30.09 1019 10 16 N/A
1:15 pm 13:15 Partly Cloudy with Light Rain 84 29 75 23.8 74 74 SSW 13 20 30.08 1019 7 11 N/A
1:35 pm 13:35 Mostly Cloudy 83 28.1 74 23.5 76 76 SSW 10 17 30.08 1018 10 16 N/A
1:55 pm 13:55 Partly Cloudy 86 30.1 74 23.2 67 67 S 8 13 30.05 1018 10 16 N/A
2:15 pm 14:15 Sunny 88 31.3 73 23 61 61 SSW 9 15 30.04 1017 10 16 N/A
2:35 pm 14:35 Partly Cloudy 90 32.3 72 22.1 55 55 SW 17 28 30.04 1017 10 16 N/A
2:55 pm 14:55 Partly Cloudy 91 32.6 72 22.2 54 54 WSW 14 22 30.02 1016 10 16 N/A
3:15 pm 15:15 Partly Cloudy 90 32.1 72 22 55 55 WSW 10 17 30.02 1016 10 16 N/A
3:35 pm 15:35 Mostly Cloudy 89 31.9 73 22.5 58 58 W 17 28 30.02 1017 7 11 N/A
3:55 pm 15:55 Partly Cloudy 89 31.7 71 21.9 56 56 W 15 24 30.01 1016 10 16 N/A
4:15 pm 16:15 Partly Cloudy 86 30.2 73 22.5 63 63 WSW 8 13 30.00 1016 10 16 N/A
4:35 pm 16:35 Sunny 88 31.3 74 23.6 64 64 WSW 14 22 30.00 1016 10 16 N/A
4:55 pm 16:55 Sunny 88 31.3 75 24.1 66 66 W 12 19 30.00 1016 10 16 N/A
5:15 pm 17:15 Sunny 88 31.1 74 23.1 62 62 W 12 19 30.00 1016 10 16 N/A
5:35 pm 17:35 Sunny 88 31 72 22.3 60 60 W 9 15 29.99 1016 10 16 N/A
5:55 pm 17:55 Sunny 88 31.1 71 21.8 58 58 WSW 10 17 29.98 1015 10 16 N/A
6:15 pm 18:15 Sunny 88 30.9 71 21.5 57 57 WSW 9 15 29.98 1015 10 16 N/A
6:35 pm 18:35 Sunny 87 30.8 72 22.4 61 61 WSW 7 11 29.98 1015 10 16 N/A
6:55 pm 18:55 Sunny 87 30.4 72 22.3 62 62 W 7 11 29.99 1016 10 16 N/A
7:15 pm 19:15 Sunny 86 29.8 73 22.7 66 66 WNW 6 9 29.99 1016 10 16 N/A
7:35 pm 19:35 Sunny 85 29.2 73 23 69 69 WNW 6 9 29.99 1016 10 16 N/A
7:55 pm 19:55 Sunny 83 28.1 74 23.5 76 76 W 5 7 29.99 1015 10 16 N/A
8:15 pm 20:15 Clear 80 26.7 76 24.6 88 88 N N/A 30.00 1016 10 16 N/A
8:35 pm 20:35 Clear 79 26 77 24.8 93 93 N N/A 30.01 1016 10 16 N/A
8:55 pm 20:55 Clear 78 25.3 76 24.5 95 95 N N/A 30.01 1016 10 16 N/A
9:15 pm 21:15 Clear 77 25.1 76 24.7 98 98 N N/A 30.02 1017 10 16 N/A
9:35 pm 21:35 Clear 75 24 75 24 100 100 N N/A 30.02 1016 10 16 N/A
9:55 pm 21:55 Clear 75 24 N/A N/A N N/A 30.03 1017 10 16 N/A
10:15 pm 22:15 Clear 75 24 N/A N/A W 3 6 30.03 1017 10 16 N/A
10:35 pm 22:35 Clear 75 24 N/A N/A N N/A 30.03 1017 10 16 N/A
10:55 pm 22:55 Clear 75 24 N/A N/A N N/A 30.03 1017 10 16 N/A
11:15 pm 23:15 Clear 75 24 N/A N/A SW 3 6 30.03 1017 10 16 N/A
11:35 pm 23:35 Clear 75 24 N/A N/A N N/A 30.04 1017 10 16 N/A
11:55 pm 23:55 Clear 73 23 N/A N/A N N/A 30.04 1017 10 16 N/A

Powered by AerisWeather